Location: Las Vegas
(36.1750°N, 115.1360°W)
Time: 22:42:40
(UTC-07:00)

Amateur Radio Satellites - All Passes

Search period start: 19 April 2014 22:12
Search period end: 20 April 2014 22:12
Location: Las Vegas, 36.1750°N, 115.1360°W

Satellite Date Start Highest point End Downlink Frequencies (MHz)
Time Altitude Azimuth
FUNcube-1 19 Apr 22:13:18 22:17:24 52° 75° (ENE) 22:21:28 145.950 - 145.970 MHz USB
Oscar 11 19 Apr 22:22:16 22:26:09 33° 262° (W) 22:30:04 145.825 FM, Beacon 2401.500 USB
ISS 19 Apr 22:25:39 22:28:58 61° 224° (SW) 22:32:16 145.800 FM
Sapphire 19 Apr 23:03:44 23:06:27 14° 103° (ESE) 23:09:10 437.095 MHz 1200 baud AX-25 AFSK
PCSat 19 Apr 23:45:54 23:50:54 40° 110° (ESE) 23:55:55 145.825 MHz
FUNcube-1 19 Apr 23:53:28 23:54:06 10° 268° (W) 23:54:43 145.950 - 145.970 MHz USB
SO-50 20 Apr 00:00:08 00:04:31 39° 55° (NE) 00:08:57 436.795 FM
Sapphire 20 Apr 00:43:52 00:49:14 66° 298° (WNW) 00:54:38 437.095 MHz 1200 baud AX-25 AFSK
Oscar 19 20 Apr 01:08:29 01:11:21 15° 92° (E) 01:14:12 437.125 CW, 437.150 USB
KITSAT 1 20 Apr 01:15:25 01:21:19 23° 103° (ESE) 01:27:12 435.175 FM
Oscar 16 20 Apr 01:16:09 01:19:51 20° 94° (E) 01:23:32 437.025 USB, Beacon 2401.1428
OPAL 20 Apr 01:21:58 01:25:09 17° 62° (ENE) 01:28:21 ?
PCSat 20 Apr 01:29:55 01:34:24 26° 307° (NW) 01:38:55 145.825 MHz
SO-50 20 Apr 01:41:23 01:44:49 20° 250° (WSW) 01:48:16 436.795 FM
Uribyol 2 20 Apr 01:52:10 01:56:09 22° 95° (E) 02:00:07 436.500 FM
UOSAT-12 20 Apr 02:20:03 02:24:42 55° 57° (ENE) 02:29:17 437.025 FM, 437.400 FM
Gurwin Techsat 1B 20 Apr 02:29:27 02:32:14 14° 92° (E) 02:35:01 435.225 FM
AO-27 20 Apr 02:31:51 02:36:56 54° 101° (E) 02:41:59 436.795 MHz FM
ITAMSAT 1 20 Apr 02:42:21 02:47:30 68° 102° (ESE) 02:52:38 435.822 SSB
AO-Echo 20 Apr 02:43:26 02:48:06 54° 100° (E) 02:52:40 ?
Oscar 19 20 Apr 02:45:55 02:51:00 57° 287° (WNW) 02:56:04 437.125 CW, 437.150 USB
Oscar 16 20 Apr 02:54:27 02:59:21 44° 289° (WNW) 03:04:15 437.025 USB, Beacon 2401.1428
OPAL 20 Apr 02:58:41 03:03:33 52° 258° (WSW) 03:08:32 ?
KITSAT 1 20 Apr 03:07:51 03:15:56 70° 300° (WNW) 03:24:03 435.175 FM
TMSAT-1 20 Apr 03:15:45 03:20:21 30° 96° (E) 03:24:56 436.925 FM
Uribyol 2 20 Apr 03:30:56 03:35:42 38° 290° (WNW) 03:40:27 436.500 FM
JAS-1B 20 Apr 03:48:16 03:53:06 28° 97° (E) 03:58:11 435.800 - 435.900 CW/SSB
AO-7 20 Apr 03:50:37 03:56:16 20° 93° (E) 04:01:53 29.400 - 29.500 MHz
UOSAT-12 20 Apr 04:01:52 04:04:21 14° 252° (WSW) 04:06:50 437.025 FM, 437.400 FM
Gurwin Techsat 1B 20 Apr 04:07:20 04:12:34 60° 286° (WNW) 04:17:46 435.225 FM
AO-27 20 Apr 04:12:46 04:15:58 17° 296° (WNW) 04:19:11 436.795 MHz FM
ITAMSAT 1 20 Apr 04:23:55 04:26:23 14° 297° (WNW) 04:28:51 435.822 SSB
AO-Echo 20 Apr 04:23:58 04:26:22 14° 296° (WNW) 04:28:45 ?
Uosat F 20 Apr 04:40:48 04:45:48 73° 102° (ESE) 04:50:47 435.120 FM
RS-15 20 Apr 04:42:43 04:49:20 18° 100° (E) 04:55:47 29.354 - 29.394 USB, Beacon 29.352 USB
TMSAT-1 20 Apr 04:55:38 05:00:11 30° 291° (WNW) 05:04:42 436.925 FM
KITSAT 1 20 Apr 05:08:01 05:12:54 17° 322° (NW) 05:17:48 435.175 FM
AO-40 20 Apr 05:13:18 11:10:59 41° 176° (S) 14:02:24 Beacon 2401.320
JAS-1B 20 Apr 05:38:51 05:43:48 32° 292° (WNW) 05:48:57 435.800 - 435.900 CW/SSB
STRAND 1 20 Apr 05:38:56 05:42:56 24° 67° (ENE) 05:46:56 ?
AO-7 20 Apr 05:41:24 05:49:43 77° 290° (WNW) 05:58:01 29.400 - 29.500 MHz
Uosat F 20 Apr 06:22:08 06:23:56 12° 298° (WNW) 06:25:45 435.120 FM
JAS-2 20 Apr 06:24:10 06:26:27 12° 93° (E) 06:28:48 435.800 - 435.900 CW/SSB, 435.910 FM
RS-15 20 Apr 06:48:39 07:00:05 86° 117° (ESE) 07:11:07 29.354 - 29.394 USB, Beacon 29.352 USB
MaSat-1 20 Apr 06:51:46 06:54:49 53° 66° (ENE) 06:58:26 437.345 MHz
Hamsat 20 Apr 06:57:48 07:02:10 90° 313° (NW) 07:06:32 145.90 MHz
STRAND 1 20 Apr 07:17:12 07:21:53 36° 262° (W) 07:26:35 ?
AO-7 20 Apr 07:36:46 07:41:09 16° 308° (NW) 07:45:33 29.400 - 29.500 MHz
SO-67 20 Apr 07:50:11 07:53:40 68° 100° (E) 07:57:08 435.3500 MHz FM
JAS-2 20 Apr 08:06:24 08:11:51 73° 285° (WNW) 08:17:54 435.800 - 435.900 CW/SSB, 435.910 FM
PANSAT 20 Apr 08:24:16 08:27:09 20° 168° (SSE) 08:30:02 not established
PCSat 20 Apr 08:36:59 08:40:57 20° 51° (NE) 08:44:54 145.825 MHz
RS-15 20 Apr 09:04:38 09:13:49 28° 321° (NW) 09:22:53 29.354 - 29.394 USB, Beacon 29.352 USB
HO-68 20 Apr 09:12:32 09:19:04 37° 98° (E) 09:25:35 435.675 MHz FM
Sapphire 20 Apr 09:34:33 09:39:53 55° 60° (ENE) 09:45:10 437.095 MHz 1200 baud AX-25 AFSK
Saudisat 1A 20 Apr 09:42:31 09:45:44 20° 110° (ESE) 09:48:59 436.775 MHz
PANSAT 20 Apr 10:03:38 10:06:53 26° 181° (S) 10:10:08 not established
FUNcube-1 20 Apr 10:06:53 10:08:46 13° 93° (E) 10:10:40 145.950 - 145.970 MHz USB
Oscar 11 20 Apr 10:12:08 10:16:24 51° 100° (E) 10:20:38 145.825 FM, Beacon 2401.500 USB
PCSat 20 Apr 10:19:25 10:24:42 55° 248° (WSW) 10:29:57 145.825 MHz
HO-68 20 Apr 11:00:11 11:06:41 39° 294° (WNW) 11:13:10 435.675 MHz FM
KITSAT 1 20 Apr 11:04:22 11:11:48 38° 52° (NE) 11:19:09 435.175 FM
Oscar 10/S400 20 Apr 11:13:19 12:58:02 48° 250° (WSW) 18:29:48 145.825 - 145.975 CW/USB, Beacon 145.810 USB
Sapphire 20 Apr 11:19:23 11:22:47 17° 256° (WSW) 11:26:10 437.095 MHz 1200 baud AX-25 AFSK
Saudisat 1A 20 Apr 11:20:56 11:25:04 37° 305° (NW) 11:29:14 436.775 MHz
RS-15 20 Apr 11:27:27 11:31:46 13° 356° (N) 11:36:05 29.354 - 29.394 USB, Beacon 29.352 USB
FUNcube-1 20 Apr 11:41:17 11:45:23 47° 286° (WNW) 11:49:34 145.950 - 145.970 MHz USB
PANSAT 20 Apr 11:43:57 11:46:36 18° 194° (SSW) 11:49:15 not established
Oscar 11 20 Apr 11:50:12 11:52:07 13° 295° (WNW) 11:54:02 145.825 FM, Beacon 2401.500 USB
Oscar 19 20 Apr 12:23:00 12:26:18 17° 65° (ENE) 12:29:36 437.125 CW, 437.150 USB
Oscar 16 20 Apr 12:30:46 12:34:40 22° 67° (ENE) 12:38:35 437.025 USB, Beacon 2401.1428
KITSAT 1 20 Apr 12:59:40 13:07:17 47° 250° (WSW) 13:14:50 435.175 FM
Uribyol 2 20 Apr 13:07:38 13:11:51 26° 68° (ENE) 13:16:05 436.500 FM
ISS 20 Apr 13:30:56 13:33:03 16° 128° (SE) 13:35:11 145.800 FM
RS-15 20 Apr 13:42:02 13:50:16 23° 34° (NNE) 13:58:34 29.354 - 29.394 USB, Beacon 29.352 USB
AO-27 20 Apr 13:47:22 13:52:29 63° 74° (ENE) 13:57:37 436.795 MHz FM
Gurwin Techsat 1B 20 Apr 13:47:54 13:51:30 19° 65° (ENE) 13:55:06 435.225 FM
AO-Echo 20 Apr 13:53:14 13:58:21 55° 74° (ENE) 14:03:22 ?
ITAMSAT 1 20 Apr 13:57:42 14:02:53 78° 75° (ENE) 14:08:04 435.822 SSB
Oscar 19 20 Apr 14:00:13 14:05:11 51° 260° (W) 14:10:13 437.125 CW, 437.150 USB
Oscar 16 20 Apr 14:08:59 14:13:44 39° 262° (W) 14:18:33 437.025 USB, Beacon 2401.1428
SO-50 20 Apr 14:13:38 14:17:07 23° 111° (ESE) 14:20:37 436.795 FM
JAS-1B 20 Apr 14:30:36 14:36:44 25° 66° (ENE) 14:42:08 435.800 - 435.900 CW/SSB
TMSAT-1 20 Apr 14:33:56 14:38:43 36° 70° (ENE) 14:43:31 436.925 FM
Uribyol 2 20 Apr 14:46:34 14:51:10 33° 263° (W) 14:55:47 436.500 FM
AO-7 20 Apr 14:47:17 14:53:24 24° 57° (ENE) 14:59:31 29.400 - 29.500 MHz
ISS 20 Apr 15:06:20 15:09:32 42° 323° (NW) 15:12:44 145.800 FM
OPAL 20 Apr 15:11:03 15:16:09 51° 102° (ESE) 15:21:12 ?
Gurwin Techsat 1B 20 Apr 15:25:55 15:31:02 50° 260° (W) 15:36:12 435.225 FM
AO-27 20 Apr 15:29:58 15:32:22 13° 268° (W) 15:34:47 436.795 MHz FM
AO-Echo 20 Apr 15:34:21 15:37:22 15° 267° (W) 15:40:21 ?
ITAMSAT 1 20 Apr 15:42:30 15:42:53 10° 270° (W) 15:43:16 435.822 SSB
Uosat F 20 Apr 15:51:22 15:56:23 76° 75° (ENE) 16:01:24 435.120 FM
SO-50 20 Apr 15:53:26 15:57:28 32° 307° (NW) 16:01:33 436.795 FM
RS-15 20 Apr 15:53:40 16:04:41 78° 59° (ENE) 16:16:00 29.354 - 29.394 USB, Beacon 29.352 USB
TMSAT-1 20 Apr 16:14:26 16:18:40 24° 265° (W) 16:22:56 436.925 FM
JAS-1B 20 Apr 16:18:52 16:27:02 58° 258° (WSW) 16:33:54 435.800 - 435.900 CW/SSB
UOSAT-12 20 Apr 16:29:15 16:33:11 30° 112° (ESE) 16:37:12 437.025 FM, 437.400 FM
AO-7 20 Apr 16:37:07 16:45:22 73° 255° (WSW) 16:53:40 29.400 - 29.500 MHz
OPAL 20 Apr 16:51:05 16:54:35 19° 297° (WNW) 16:58:05 ?
Hamsat 20 Apr 17:48:45 17:52:43 44° 74° (ENE) 17:56:45 145.90 MHz
RS-15 20 Apr 18:07:43 18:15:51 25° 257° (WSW) 18:24:13 29.354 - 29.394 USB, Beacon 29.352 USB
UOSAT-12 20 Apr 18:09:25 18:13:17 27° 309° (NW) 18:17:15 437.025 FM, 437.400 FM
JAS-2 20 Apr 18:16:47 18:21:55 33° 70° (ENE) 18:26:41 435.800 - 435.900 CW/SSB, 435.910 FM
SO-67 20 Apr 18:22:40 18:24:45 15° 70° (ENE) 18:26:51 435.3500 MHz FM
AO-7 20 Apr 18:37:39 18:39:20 11° 271° (W) 18:41:00 29.400 - 29.500 MHz
Hamsat 20 Apr 19:27:05 19:28:56 13° 268° (W) 19:30:47 145.90 MHz
STRAND 1 20 Apr 19:30:00 19:35:07 87° 284° (WNW) 19:40:13 ?
HO-68 20 Apr 19:39:41 19:44:50 22° 60° (ENE) 19:49:58 435.675 MHz FM
Saudisat 1A 20 Apr 19:49:55 19:54:21 81° 60° (ENE) 19:58:42 436.775 MHz
SO-67 20 Apr 19:54:46 19:57:40 24° 264° (W) 20:00:36 435.3500 MHz FM
ISS 20 Apr 20:01:52 20:03:17 12° 23° (NNE) 20:04:42 145.800 FM
JAS-2 20 Apr 20:02:02 20:07:00 28° 263° (W) 20:11:37 435.800 - 435.900 CW/SSB, 435.910 FM
MaSat-1 20 Apr 20:52:52 20:55:52 54° 112° (ESE) 20:58:29 437.345 MHz
Oscar 11 20 Apr 21:05:01 21:08:43 29° 71° (ENE) 21:12:27 145.825 FM, Beacon 2401.500 USB
HO-68 20 Apr 21:24:48 21:31:52 67° 257° (WSW) 21:38:59 435.675 MHz FM
ISS 20 Apr 21:37:12 21:40:33 69° 40° (NE) 21:43:53 145.800 FM
